{"data":{"norad_id":49090,"intl_designator":"2021-075R","name":"ONEWEB-0301","alt_names":[],"object_type":"PAYLOAD","status":"ACTIVE","operator":null,"country":"UK","launch_date":"2021-08-21","launch_site_code":"TYMSC","launch_vehicle":null,"mission":null,"orbit_class":"UNKNOWN","rcs_meters":null,"size_class":null,"mass_kg":null,"dimensions":null,"purposes":["comms"],"wikipedia_slug":null,"has_3d_model":false,"image_url":null,"decayed_at":null,"tle_current":{"epoch":"2026-09-20T03:44:37.447872Z","epoch_age_seconds":51719,"freshness":"FRESH","line1":"1 49090U 21075R   26263.15598898 -.00000171  00000+0 -51034-3 0  9995","line2":"2 49090  87.8982 331.8033 0002208  95.6322 264.5058 13.12443309247021","mean_motion":13.12443309,"eccentricity":0.0002208,"inclination_deg":87.8982,"raan_deg":331.8033,"arg_perigee_deg":95.6322,"mean_anomaly_deg":264.5058,"bstar":-0.00051034,"rev_number":24702,"period_min":109.7190248238,"perigee_km":1212.0458169465,"apogee_km":1215.3983819248,"semimajor_km":7591.8590994357,"source":"CELESTRAK","updated_at":"2026-09-20T09:00:44.634061Z"}}}